[[{"header":{"parameterUnit":"m.s-1","parameterCategory":1,"la1":30.2991,"la2":30.254,"lo1":-89.0895,"lo2":-89.0444,"dy":0.0017,"dx":0.0017,"nx":28,"ny":28,"refTime":"2024-07-07T21:00:00:Z","depth":0,"parameterNumber":2,"parameterNumberName":"U-component_of_WINDS"},"data":[0,0,0,0,0,0,0,0,0,0,0,0,0,0,0,0,0,0,0,0,0,0,0,0,0,0,0,0,0,0,0,0,0,0,0,0,0,0,0,0,0,0,0,0,0,0,0,0,0,0,0,0,0,0,0,0,0,0,-1.3211,-1.321,0,-1.3099,-1.3098,-1.3096,-1.3049,-1.305,-1.305,-1.305,-1.2936,-1.2933,-1.293,0,0,0,0,0,0,0,0,0,0,0,0,0,-1.3386,-1.3383,-1.3211,-1.3209,-1.3208,-1.3099,-1.3098,-1.3096,-1.3049,-1.305,-1.305,-1.305,-1.2937,-1.2933,-1.2929,0,0,0,0,0,0,0,0,0,0,0,0,0,-1.3296,-1.3382,-1.3211,-1.3172,-1.3167,-1.3099,-1.3097,-1.3096,-1.3049,-1.305,-1.305,-1.305,-1.2938,-1.2934,-1.2929,-1.2892,0,0,-1.2914,-1.2912,0,0,0,0,0,0,0,0,-1.3301,-1.3289,-1.3179,-1.3174,-1.3169,-1.3088,-1.3117,-1.3027,-1.3049,-1.3094,-1.305,-1.3051,-1.2986,-1.2978,-1.2956,-1.2887,-1.2882,-1.2914,-1.2911,-1.2908,-1.2907,0,0,0,0,0,0,0,-1.3307,-1.3294,-1.3166,-1.3177,-1.3171,-1.316,-1.3148,-1.31,-1.304,-1.309,-1.3087,-1.3074,-1.2984,-1.2961,-1.2953,-1.288,-1.2914,-1.2909,-1.2906,-1.2904,-1.2777,-1.2776,0,0,0,0,0,0,-1.332,-1.3299,-1.317,-1.3163,-1.3237,-1.3157,-1.3143,-1.3114,-1.304,-1.3029,-1.3074,-1.3072,-1.2969,-1.2959,-1.2949,-1.2901,-1.2909,-1.2904,-1.2901,-1.2777,-1.2777,-1.2776,0,0,0,0,0,0,-1.3324,-1.3309,-1.3175,-1.323,-1.3212,-1.3153,-1.3121,-1.3112,-1.3088,-1.3028,-1.3017,-1.3061,-1.2969,-1.2956,-1.2907,-1.2897,-1.2902,-1.2897,-1.2778,-1.2777,-1.2777,-1.2806,0,0,0,0,0,0,-1.3329,-1.331,-1.3295,-1.323,-1.3209,-1.3134,-1.3121,-1.3109,-1.308,-1.3077,-1.3013,-1.3003,-1.2968,-1.2914,-1.2902,-1.289,-1.2894,-1.2778,-1.2778,-1.2777,-1.2806,-1.2807,-1.2807,0,0,0,0,0,-1.3335,-1.3308,-1.3295,-1.3279,-1.3189,-1.3133,-1.3122,-1.3082,-1.3079,-1.3064,-1.3026,-1.3005,-1.29,-1.291,-1.2895,-1.2882,-1.2779,-1.2778,-1.2777,-1.2806,-1.2807,-1.2807,0,0,0,0,0,0,-1.3373,-1.3299,-1.3283,-1.3234,-1.319,-1.3126,-1.3105,-1.3084,-1.3041,-1.304,-1.2993,-1.2979,-1.2934,-1.2903,-1.2915,-1.2843,-1.2838,-1.2834,-1.2865,-1.2865,-1.2866,-1.2874,-1.289,0,0,0,0,0,-1.3376,-1.3336,-1.3273,-1.3236,-1.3215,-1.3164,-1.3138,-1.3112,-1.3065,-1.3046,-1.3004,-1.296,-1.2917,-1.289,-1.2847,-1.2802,-1.2788,-1.2786,-1.2787,-1.2787,-1.2784,-1.2759,-1.2758,-1.2773,-1.2773,-1.2773,0,0,-1.338,-1.3335,-1.3313,-1.3243,-1.3206,-1.3166,-1.3149,-1.3108,-1.3078,-1.304,-1.2991,-1.2959,-1.2907,-1.286,-1.2837,-1.2833,-1.2777,-1.2786,-1.2787,-1.2783,-1.2758,-1.2757,-1.2755,-1.2772,-1.2772,-1.2772,0,0,-1.3369,-1.3331,-1.3296,-1.3259,-1.3204,-1.3171,-1.3163,-1.3101,-1.3078,-1.3029,-1.3,-1.2965,-1.2892,-1.2856,-1.2828,-1.2806,-1.2785,-1.2793,-1.2796,-1.2772,-1.2771,-1.277,-1.2762,-1.276,-1.279,-1.279,-1.279,0,-1.3382,-1.3321,-1.328,-1.3241,-1.3211,-1.3176,-1.314,-1.3107,-1.3041,-1.3022,-1.3018,-1.2927,-1.2889,-1.2833,-1.2828,-1.2807,-1.2797,-1.2799,-1.2775,-1.2773,-1.2771,-1.2763,-1.276,-1.2792,-1.2792,-1.2791,-1.2791,0,-1.334,-1.3299,-1.3277,-1.3214,-1.3182,-1.3145,-1.3099,-1.3072,-1.3049,-1.3016,-1.2967,-1.2921,-1.2869,-1.2854,-1.2831,-1.2796,-1.2795,-1.2784,-1.2777,-1.2772,-1.2763,-1.276,-1.2794,-1.2793,-1.2793,-1.2792,0,0,-1.3347,-1.3264,-1.3256,-1.3228,-1.3165,-1.3133,-1.3095,-1.3044,-1.3021,-1.2978,-1.2945,-1.2885,-1.2875,-1.2843,-1.2816,-1.2795,-1.2781,-1.2787,-1.2785,-1.2787,-1.274,-1.2749,-1.2746,-1.2768,-1.2767,-1.2767,-1.2745,0,-1.3327,-1.3257,-1.322,-1.3166,-1.3127,-1.3094,-1.3061,-1.302,-1.2989,-1.2952,-1.2918,-1.2876,-1.2866,-1.2847,-1.2825,-1.2788,-1.2771,-1.2789,-1.2737,-1.2736,-1.275,-1.2741,-1.275,-1.2731,-1.2741,-1.2741,-1.274,0,-1.3294,-1.3251,-1.3193,-1.3136,-1.3118,-1.3089,-1.304,-1.3005,-1.2958,-1.2937,-1.2903,-1.2877,-1.2837,-1.2835,-1.2779,-1.2792,-1.2769,-1.2748,-1.2746,-1.2739,-1.2737,-1.2734,-1.2724,-1.2721,-1.2735,-1.2735,-1.2736,0,-1.3305,-1.3233,-1.3188,-1.3165,-1.3098,-1.3078,-1.3049,-1.3002,-1.2975,-1.2932,-1.2914,-1.2867,-1.2842,-1.2807,-1.2769,-1.2771,-1.2718,-1.2712,-1.2699,-1.27,-1.2688,-1.2689,-1.2675,-1.2675,-1.2675,-1.2675,-1.2675,0,-1.3286,-1.3252,-1.3193,-1.3166,-1.3127,-1.3085,-1.3048,-1.3017,-1.2976,-1.2943,-1.2912,-1.2881,-1.2834,-1.2798,-1.2768,-1.2727,-1.2716,-1.2698,-1.2691,-1.27,-1.2703,-1.2684,-1.2684,-1.2674,-1.2675,-1.2675,-1.2675,0,-1.3291,-1.325,-1.32,-1.3141,-1.3125,-1.3099,-1.3048,-1.3021,-1.299,-1.2948,-1.2936,-1.2886,-1.2843,-1.2802,-1.2744,-1.2724,-1.2682,-1.2673,-1.2698,-1.2694,-1.2683,-1.2685,-1.2655,-1.265,-1.2655,-1.2655,-1.2655,0,-1.3281,-1.3254,-1.3192,-1.3167,-1.3139,-1.31,-1.3072,-1.3031,-1.3003,-1.2948,-1.2928,-1.2882,-1.2843,-1.2775,-1.2734,-1.269,-1.2679,-1.2671,-1.2672,-1.2683,-1.2678,-1.268,-1.2677,-1.2672,-1.2672,-1.2672,-1.2672,0,-1.3268,-1.3249,-1.3209,-1.3163,-1.313,-1.3091,-1.3052,-1.3034,-1.2985,-1.2956,-1.2911,-1.288,-1.2822,-1.2777,-1.2728,-1.2699,-1.2678,-1.2673,-1.2667,-1.2677,-1.2692,-1.2684,-1.2699,-1.2673,-1.2673,-1.2673,-1.2673,-1.2673,-1.3265,-1.3239,-1.3192,-1.3149,-1.3115,-1.3079,-1.3051,-1.3016,-1.2978,-1.2926,-1.2905,-1.286,-1.2815,-1.2747,-1.2719,-1.2683,-1.2679,-1.2671,-1.2669,-1.2668,-1.267,-1.2699,-1.2675,-1.2674,-1.2674,-1.2674,-1.2674,0,-1.325,-1.3218,-1.3179,-1.3125,-1.3091,-1.3075,-1.303,-1.3004,-1.2964,-1.2924,-1.2886,-1.2836,-1.2792,-1.2749,-1.2703,-1.2683,-1.2673,-1.2673,-1.2673,-1.2667,-1.2676,-1.2685,-1.2682,-1.2682,-1.2682,-1.2682,-1.2682,-1.2682,-1.3238,-1.3194,-1.317,-1.311,-1.3079,-1.3034,-1.301,-1.2977,-1.2945,-1.289,-1.2854,-1.2826,-1.2784,-1.2736,-1.2696,-1.2685,-1.2669,-1.2672,-1.2658,-1.2667,-1.2667,-1.2666,-1.2674,-1.2669,-1.2669,-1.2652,-1.2652,-1.2652]},{"header":{"parameterUnit":"m.s-1","parameterCategory":1,"la1":30.2991,"la2":30.254,"lo1":-89.0895,"lo2":-89.0444,"dy":0.0017,"dx":0.0017,"nx":28,"ny":28,"refTime":"2024-07-07T21:00:00:Z","depth":0,"parameterNumber":3,"parameterNumberName":"V-component_of_WINDS"},"data":[0,0,0,0,0,0,0,0,0,0,0,0,0,0,0,0,0,0,0,0,0,0,0,0,0,0,0,0,0,0,0,0,0,0,0,0,0,0,0,0,0,0,0,0,0,0,0,0,0,0,0,0,0,0,0,0,0,0,3.6844,3.6845,0,3.6859,3.6859,3.6859,3.6873,3.6873,3.6873,3.6873,3.6886,3.6887,3.6887,0,0,0,0,0,0,0,0,0,0,0,0,0,3.6829,3.6829,3.6844,3.6845,3.6845,3.6859,3.6859,3.6859,3.6873,3.6873,3.6873,3.6873,3.6886,3.6887,3.6887,0,0,0,0,0,0,0,0,0,0,0,0,0,3.6839,3.6829,3.6844,3.6853,3.6854,3.6858,3.6859,3.6859,3.6873,3.6873,3.6873,3.6873,3.6886,3.6886,3.6887,3.6883,0,0,3.6888,3.6888,0,0,0,0,0,0,0,0,3.6838,3.6839,3.6852,3.6853,3.6854,3.6864,3.6858,3.6867,3.6872,3.6866,3.6873,3.6873,3.6879,3.688,3.6882,3.6884,3.6884,3.6888,3.6888,3.6888,3.6888,0,0,0,0,0,0,0,3.6837,3.6839,3.685,3.6852,3.6853,3.6857,3.6858,3.686,3.687,3.6866,3.6867,3.6869,3.6879,3.6881,3.6882,3.6884,3.6888,3.6888,3.6888,3.6888,3.6885,3.6885,0,0,0,0,0,0,3.6836,3.6838,3.685,3.685,3.6847,3.6857,3.6858,3.686,3.687,3.6872,3.6869,3.6869,3.6881,3.6882,3.6882,3.6879,3.6888,3.6888,3.6888,3.6885,3.6885,3.6885,0,0,0,0,0,0,3.6835,3.6836,3.6849,3.6845,3.6846,3.6857,3.6859,3.6861,3.6863,3.6872,3.6874,3.6869,3.6881,3.6882,3.6883,3.688,3.6888,3.6889,3.6886,3.6885,3.6885,3.6873,0,0,0,0,0,0,3.6835,3.6836,3.6835,3.6844,3.6847,3.6849,3.6859,3.6861,3.6863,3.6864,3.6873,3.6874,3.6881,3.6883,3.6883,3.6881,3.6889,3.6886,3.6886,3.6885,3.6873,3.6872,3.6871,0,0,0,0,0,3.6834,3.683,3.6835,3.6836,3.6845,3.6849,3.685,3.6858,3.6863,3.6862,3.6868,3.6874,3.688,3.6883,3.6884,3.6881,3.6886,3.6886,3.6885,3.6874,3.6872,3.6871,0,0,0,0,0,0,3.6819,3.6831,3.6837,3.6836,3.6841,3.6851,3.685,3.6856,3.686,3.6861,3.6871,3.6873,3.6873,3.6877,3.6879,3.6878,3.6884,3.6884,3.6875,3.6874,3.6873,3.6871,3.6889,0,0,0,0,0,3.6816,3.6818,3.6829,3.6827,3.683,3.6839,3.6841,3.6847,3.6853,3.6856,3.6862,3.6867,3.6871,3.6873,3.6876,3.6874,3.6877,3.6873,3.6872,3.6871,3.687,3.687,3.6869,3.6883,3.6883,3.6883,0,0,3.6809,3.6816,3.6816,3.6824,3.6829,3.6832,3.6841,3.6843,3.6845,3.6856,3.6857,3.6862,3.6869,3.6869,3.6869,3.6873,3.6867,3.687,3.6869,3.6869,3.687,3.6868,3.6867,3.6883,3.6883,3.6883,0,0,3.6797,3.6802,3.6802,3.6807,3.6815,3.6822,3.6822,3.6831,3.6835,3.6837,3.6846,3.6849,3.6854,3.6858,3.6862,3.6854,3.686,3.6854,3.6847,3.6847,3.6846,3.6845,3.6843,3.6842,3.6854,3.6854,3.6854,0,3.6787,3.6791,3.6801,3.6803,3.6806,3.6817,3.6817,3.6822,3.683,3.6832,3.6836,3.6844,3.6849,3.685,3.6849,3.6851,3.6851,3.6853,3.6846,3.6845,3.6844,3.6842,3.6841,3.6853,3.6853,3.6853,3.6853,0,3.6779,3.6782,3.678,3.6789,3.6793,3.6793,3.6803,3.6806,3.6812,3.6818,3.6821,3.6828,3.6833,3.6834,3.684,3.6837,3.6839,3.6844,3.685,3.6842,3.684,3.6839,3.6852,3.6853,3.6853,3.6853,0,0,3.6757,3.6772,3.6772,3.6776,3.6787,3.6789,3.6791,3.6797,3.6799,3.6805,3.6806,3.6811,3.6817,3.682,3.6827,3.6827,3.6821,3.6833,3.6833,3.683,3.6819,3.6816,3.6814,3.6826,3.6826,3.6825,3.6819,0,3.6747,3.6751,3.6761,3.6761,3.6765,3.6776,3.6778,3.6784,3.6791,3.6794,3.6801,3.6805,3.6811,3.6814,3.6815,3.6822,3.6819,3.6822,3.6827,3.6828,3.6825,3.6813,3.6809,3.6802,3.6818,3.6818,3.6818,0,3.6736,3.6742,3.6743,3.6755,3.6756,3.6758,3.6765,3.6768,3.6776,3.6781,3.6786,3.6793,3.6796,3.6802,3.6806,3.6808,3.6811,3.6815,3.6815,3.6816,3.6822,3.6814,3.68,3.68,3.6817,3.6817,3.6817,0,3.672,3.6729,3.6731,3.6735,3.6748,3.6749,3.6754,3.6762,3.6766,3.6772,3.6775,3.6781,3.6784,3.6789,3.6799,3.6802,3.6802,3.6809,3.6806,3.6806,3.6805,3.6805,3.6792,3.6807,3.6807,3.6807,3.6807,0,3.6708,3.6708,3.6724,3.6726,3.6727,3.6738,3.6739,3.6746,3.6753,3.6757,3.6767,3.6769,3.6781,3.6786,3.6793,3.6796,3.6797,3.6801,3.6803,3.68,3.68,3.6802,3.6803,3.6807,3.6807,3.6807,3.6807,0,3.669,3.6701,3.6704,3.6717,3.672,3.6721,3.6732,3.6734,3.6741,3.6745,3.6747,3.6759,3.6764,3.6774,3.6782,3.6787,3.6789,3.6792,3.6786,3.6787,3.6784,3.6784,3.6772,3.6772,3.6787,3.6786,3.6786,0,3.6682,3.6683,3.6696,3.6699,3.6705,3.6709,3.6713,3.6725,3.6729,3.6739,3.674,3.6747,3.6752,3.6761,3.677,3.6777,3.678,3.6776,3.6781,3.6779,3.678,3.678,3.6781,3.6774,3.6774,3.6774,3.6774,0,3.6666,3.6672,3.6677,3.6685,3.669,3.6697,3.6704,3.6706,3.6719,3.6723,3.6729,3.6734,3.6743,3.6749,3.6757,3.6763,3.6771,3.6772,3.6772,3.6769,3.6766,3.6768,3.6783,3.6772,3.6772,3.6772,3.6772,3.6772,3.6653,3.6655,3.6665,3.6671,3.6678,3.6685,3.6688,3.6696,3.6702,3.671,3.6717,3.6723,3.6732,3.6744,3.675,3.6755,3.6758,3.6758,3.6757,3.6757,3.6756,3.6765,3.6756,3.6756,3.6756,3.6756,3.6756,0,3.6638,3.6645,3.6651,3.6661,3.6667,3.6674,3.6683,3.6686,3.6692,3.67,3.6706,3.6714,3.6721,3.6731,3.6739,3.6741,3.6744,3.6742,3.6742,3.6744,3.6753,3.6752,3.6739,3.6739,3.6739,3.6739,3.6739,3.6739,3.6631,3.6634,3.6641,3.6649,3.6656,3.6663,3.6667,3.6674,3.668,3.6689,3.6695,3.6702,3.6711,3.672,3.6727,3.673,3.6732,3.6729,3.6733,3.6741,3.6743,3.6744,3.6744,3.6729,3.6729,3.6724,3.6723,3.6723]}]]